KART

Watertown International Airport

Airport
ICAO code
KART
Summary
ICAO Region
NAM
ICAO Territory
Location

Watertown, New York,

Coordinates
43° 59' 30" N , 76° 1' 18" W
KCC
Airport GND
Aircraft Ground De/Anti Icing
Airport RE
Landing on Contaminated Runways
Airport WX
Lake Effect Snow
Metar
Observation
KART 032156Z AUTO 01004KT 10SM CLR 13/03 A3029 RMK AO2 SLP259 T01280028
Station
Watertown, Watertown International Airport
Date/Time
2022-10-03 21:56:00
Wind direction
10°
Wind speed
04 kts
Lowest cloud amount
n/a
Temperature
12.8°C
Dew point
2.8°C
Humidity
50%
Weather condition
n/a

Description

Watertown International Airport is a public use airport located 9 km west of the central business district of Watertown, in Jefferson County, New York.

Climatology

Humid Continental climate (Köppen climate classification Dfb) - Variable weather patterns and a large seasonal temperature variance. Summers are often warm and humid with frequent thunderstorms and winters can be very cold with frequent snowfall and persistent snow cover.

Airport map

Aerial View

SKYbrary Partners:

Safety knowledge contributed by: